Погода в Сан-Кристобаль

Доминиканская Республика     18°24′58″N   70°06′28″W
темп.,
°C
ветер,
м/с
пор.,
м/с
влажн.,
%
обл.,
%
осадки,
мм/ч
давл.,
гПа
погр.,
м
7 июля, чт
чт723:00+24с128816 1.1 101674
02:00+23ссз229228 1.8 101563
05:00+23сз12915 0.6 101541
08:00+25с128527 1.1 1016183
11:00+29юв246640 0.4 10171120
14:00+30юв466295 2.9 10161111
17:00+28юв3671100 1.5 1015830
20:00+25юв1283100 1.7 1016109
8 июля, пт
пт823:00+24с128681 0.3 1018129
02:00+23сз239318 2.8 101796
05:00+23ссз229282 0.8 101763
08:00+25с23866 0.9 1018193
11:00+29вюв346426 0.4 10191215
14:00+30юв565731 0.7 10181196
17:00+29юв45654 0.1 1017861
20:00+25вюв238562 2.1 101996
9 июля, сб
сб923:00+24ссв1388100 0.6 1020114
02:00+23с1292100 0.8 101954
05:00+23ссз2292100 0.0 101966
08:00+25с2385100 0.0 1019147
11:00+29всв356652 0.1 10191120
14:00+31ююв455781 0.3 10181145
17:00+28юв456943 0.3 1017667
20:00+25вюв128640 1.9 101842
10 июля, вс
вс1023:00+24с239095 0.3 101996
02:00+23ссз239399 0.4 101799
05:00+23ссз239299 0.1 101785
08:00+25с3482100 0.1 1017262
11:00+30всв2360100 0.0 10171247
14:00+31ююв555727 0.0 10161045
17:00+29юв456448 0.0 1015869
20:00+25юв238847 0.7 101679
11 июля, пн
пн1123:00+24с02925 0.3 101778
02:00+24сз1193100 1.4 1016112
05:00+23ссз129470 0.1 101649
08:00+25ссв1187100 0.2 1017237
11:00+28вюв3473100 0.9 1017864
14:00+31ююв5660100 1.3 10161250
17:00+29ююв456991 0.8 1015848
20:00+25юв2491100 4.1 1016153